Lexington Weather

Lexington, Massachusetts, USA

46°F
10/22/2019 1:58am 
  • Lexington Conditions: Partly cloudy
  • Temperature: 46.0°F / 7.8°CWarmer 0.5°F than last hour.
  • Dew Point: 44.4°FIncreased 1.4°Fsince last hour.
  • Relative Humidity: 94%Increased 3.0% since last hour.
  • Wind: Calm, 10-min avg: Calm, gust: None
  • Barometer: 30.12 in Steady
  • Visibility: 9 miles
  • Rain Today: 0.00 in
  •   

Regional Weather Roundup
for Boston, MA

        
000
ASUS41 KBOX 201500
RWRBOX

REGIONAL WEATHER ROUNDUP
NATIONAL WEATHER SERVICE BOSTON/NORTON MA
1100 AM EDT SUN OCT 20 2019

NOTE:  "FAIR" INDICATES FEW OR NO CLOUDS BELOW 12,000 FEET WITH NO 
SIGNIFICANT WEATHER AND/OR OBSTRUCTIONS TO VISIBILITY.

MAZALL-201600-
EASTERN MASSACHUSETTS
  
CITY           SKY/WX    TMP DP  RH WIND       PRES   REMARKS
BOSTON         PTSUNNY   58  46  64 NE3       30.10S                  
BEVERLY        FAIR      55  46  71 CALM      30.10S                  
LAWRENCE       FAIR      52  43  71 CALM      30.12F                  
BEDFORD        PTSUNNY   55  43  63 CALM      30.10S                  
BLUE HILL      NOT AVBL                                               
NORWOOD        FAIR      54  42  64 CALM      30.10S                  
MARSHFIELD     NOT AVBL                                               
PLYMOUTH       FAIR      57  48  72 S6        30.10S                  
TAUNTON        FAIR      54  44  69 CALM      30.10S                  
NEW BEDFORD    FAIR      57  47  69 VRB5      30.09S                  
$$

MAZALL-201600-
CAPE COD AND THE ISLANDS
  
CITY           SKY/WX    TMP DP  RH WIND       PRES   REMARKS
FALMOUTH       SUNNY     57  50  77 S7        30.11R                  
HYANNIS        NOT AVBL                                               
CHATHAM        NOT AVBL                                               
PROVINCETOWN   FAIR      57  44  62 SE6         N/A                   
NANTUCKET      FAIR      58  47  66 SE12      30.11R                  
MARTHAS VNYRD  FAIR      59  46  62 S8        30.10R                  
$$
 
MAZALL-201600-
CENTRAL AND WESTERN MASSACHUSETTS
  
CITY           SKY/WX    TMP DP  RH WIND       PRES   REMARKS
WORCESTER      FAIR      50  40  68 SE7       30.10S                  
FITCHBURG      FAIR      51  41  68 CALM      30.11F                  
ORANGE         FAIR      50  36  58 CALM      30.11S                  
SPRINGFIELD    NOT AVBL                                               
WESTFIELD      FAIR      50  37  61 N5        30.09F                  
NORTH ADAMS    FAIR      54  35  48 E7        30.06F                  
PITTSFIELD     FAIR      51  38  60 NE6       30.05F                  
$$
 
RIZALL-201600-
RHODE ISLAND
  
CITY           SKY/WX    TMP DP  RH WIND       PRES   REMARKS
PROVIDENCE     PTSUNNY   54  42  64 CALM      30.11S                  
NEWPORT        FAIR      56  48  74 CALM      30.10S                  
BLOCK ISLAND   FAIR      59  48  67 SE7       30.10S                  
SMITHFIELD     FAIR     N/A N/A N/A E3        30.10F                  
WESTERLY       FAIR      57  48  72 NE3       30.11S                  
$$
 
CTZALL-201600-
CONNECTICUT
  
CITY           SKY/WX    TMP DP  RH WIND       PRES   REMARKS
BRADLEY INTL   PTSUNNY   51  38  60 VRB3      30.09F                  
HARTFORD       FAIR      49  40  71 CALM      30.10F                  
BRIDGEPORT     FAIR      55  46  71 NE7       30.06F                  
DANBURY        FAIR      48  41  76 NE5       30.08F                  
GROTON         NOT AVBL                                               
NEW HAVEN      FAIR      55  45  68 N5        30.08S                  
CHESTER        FAIR      55  45  67 CALM      30.08F                  
MERIDEN        FAIR      50  39  66 N3        30.09S                  
WILLIMANTIC    FAIR      50  41  71 CALM      30.11F                  
OXFORD         PTSUNNY   52  44  74 E3        30.09R                  
$$

MEZ002-015-021-024-NHZ003-005-008-011-012-014-VTZ005-008-201600-
NORTHERN NEW ENGLAND
  
CITY           SKY/WX    TMP DP  RH WIND       PRES   REMARKS
PORTLAND ME    CLOUDY    49  37  63 CALM      30.13R                  
BANGOR ME      PTSUNNY   50  38  63 CALM      30.12F                  
CONCORD NH     FAIR      44  35  70 CALM      30.13R                  
MANCHESTER NH  PTSUNNY   49  38  65 N3        30.10F                  
NASHUA NH      FAIR      49  40  71 CALM      30.12F                  
PORTSMOUTH NH  PTSUNNY   51  42  70 N3        30.11R                  
JAFFREY NH     FAIR      50  38  63 N5        30.09F                  
KEENE NH       FAIR      43  36  76 CALM      30.11S                  
BURLINGTON VT  CLOUDY    48  39  71 S3        30.03F                  
MT. WASHINGTON PTSUNNY   41  14  33 SW13        N/A                   
$$

NYZ052-076-201600-
EASTERN NEW YORK
  
CITY           SKY/WX    TMP DP  RH WIND       PRES   REMARKS
ALBANY         CLOUDY    48  39  71 S6        30.07F                  
NEW YORK CITY  CLOUDY    57  51  80 NE8       30.05S                  
$$
 
ANZALL-201600-
MARINE OBSERVATIONS
  
STATION/POSITION TIME  TEMP    WIND        PRES    VSBY  WAVE
                       AIR SEA DIR/SP/G                  HT/PER
                 (UTC) (F)     (DEG/KT/KT) (MB)    (MI)  (FT/S)
BOSTON BUOY      1350   55 56   90/  6/  6 1018.4          1/ 9
BUZZARDS BAY     1400   56     170/  5/  6 1019.5R
NANTUCKET SOUND  1440      56              1019.6
MASS BAY-STELLWA 1404   55      80/  4/  6 1018.7R  1 7/8
ISLE OF SHOALS   1400   52      60/ 10/ 13 1018.7S
S OF BLOCK IS    1430      60                N/A           1/ 9
$$

......................KEY.........................
  SKY/WX - SKY CONDITION/PRESENT WEATHER
  TMP    - TEMPERATURE IN FAHRENHEIT
  DWPT   - DEWPOINT IN FAHRENHEIT
  RH     - RELATIVE HUMIDITY IN PERCENT
  WIND   - DIRECTION AND SPEED IN MPH
  PRES   - MEAN SEA LEVEL PRESSURE IN INCHES OF HG
  WCI    - WIND CHILL INDEX
  VSB    - VISIBILITY IN MILES
  HX     - HEAT INDEX
  TC     - TEMPERATURE IN CELSIUS
  VRB    - VARIABLE WIND DIRECTION
  N/A    - NOT AVAILABLE
  
      

Other recent Regional Weather Roundups

Tue Oct 22, 1:10am

Tue Oct 22, 1:00am

Tue Oct 22, 12:10am

Tue Oct 22, 12:00am

Mon Oct 21, 11:10pm

Mon Oct 21, 11:00pm

Mon Oct 21, 10:10pm

Mon Oct 21, 10:01pm

Mon Oct 21, 9:10pm

Mon Oct 21, 9:00pm

Mon Oct 21, 8:10pm

Mon Oct 21, 8:00pm

Mon Oct 21, 7:10pm

Mon Oct 21, 7:01pm

Mon Oct 21, 6:10pm

Mon Oct 21, 6:01pm

Mon Oct 21, 5:10pm

Mon Oct 21, 5:01pm

Mon Oct 21, 4:10pm

Mon Oct 21, 4:00pm

Mon Oct 21, 3:10pm

Mon Oct 21, 3:01pm

Mon Oct 21, 2:10pm

Mon Oct 21, 2:00pm

Mon Oct 21, 1:10pm

Mon Oct 21, 1:01pm

Mon Oct 21, 12:10pm

Mon Oct 21, 12:00pm

Mon Oct 21, 11:10am

Mon Oct 21, 11:00am

Mon Oct 21, 10:10am

Mon Oct 21, 10:00am

Mon Oct 21, 9:10am

Mon Oct 21, 9:00am

Mon Oct 21, 7:10am

Mon Oct 21, 7:00am

Mon Oct 21, 6:10am

Mon Oct 21, 6:00am

Mon Oct 21, 5:10am

Mon Oct 21, 5:00am

Mon Oct 21, 4:10am

Mon Oct 21, 4:00am

Mon Oct 21, 3:10am

Mon Oct 21, 3:00am

Mon Oct 21, 2:10am

Mon Oct 21, 2:01am

Mon Oct 21, 1:10am

Mon Oct 21, 1:00am

Mon Oct 21, 12:10am

Mon Oct 21, 12:00am

Sun Oct 20, 11:10pm

Sun Oct 20, 11:00pm

Sun Oct 20, 10:10pm

Sun Oct 20, 10:00pm

Sun Oct 20, 9:10pm

Sun Oct 20, 9:01pm

Sun Oct 20, 8:10pm

Sun Oct 20, 8:00pm

Sun Oct 20, 7:10pm

Sun Oct 20, 7:01pm

Sun Oct 20, 6:10pm

Sun Oct 20, 6:00pm

Sun Oct 20, 5:10pm

Sun Oct 20, 5:00pm

Sun Oct 20, 4:10pm

Sun Oct 20, 4:00pm

Sun Oct 20, 3:10pm

Sun Oct 20, 3:00pm

Sun Oct 20, 2:10pm

Sun Oct 20, 2:01pm

Sun Oct 20, 1:10pm

Sun Oct 20, 1:01pm

Sun Oct 20, 12:10pm

Sun Oct 20, 12:00pm

Sun Oct 20, 11:10am

Sun Oct 20, 10:10am

Sun Oct 20, 10:00am

Sun Oct 20, 9:10am

Sun Oct 20, 9:00am

Sun Oct 20, 8:10am

Sun Oct 20, 8:00am

Sun Oct 20, 7:10am

Sun Oct 20, 7:00am

Sun Oct 20, 6:10am

Sun Oct 20, 6:00am

Sun Oct 20, 5:10am

Sun Oct 20, 5:00am

Sun Oct 20, 4:10am

Sun Oct 20, 4:00am

Sun Oct 20, 3:10am

Sun Oct 20, 3:00am

Sun Oct 20, 2:10am

Sun Oct 20, 2:00am

Sun Oct 20, 1:10am

Sun Oct 20, 1:00am

Sun Oct 20, 12:10am

Sun Oct 20, 12:00am

Sat Oct 19, 11:10pm

Sat Oct 19, 11:00pm

Sat Oct 19, 10:10pm

Sat Oct 19, 10:00pm

Sat Oct 19, 9:10pm

Sat Oct 19, 9:00pm

Sat Oct 19, 8:10pm

Sat Oct 19, 8:00pm

Sat Oct 19, 7:10pm

Sat Oct 19, 7:00pm

Sat Oct 19, 6:10pm

Sat Oct 19, 6:00pm

Sat Oct 19, 5:10pm

Sat Oct 19, 5:00pm

Sat Oct 19, 4:10pm

Sat Oct 19, 4:00pm

Sat Oct 19, 3:10pm

Sat Oct 19, 3:01pm

Sat Oct 19, 2:10pm

Sat Oct 19, 2:00pm

Sat Oct 19, 1:10pm

Sat Oct 19, 1:01pm

Sat Oct 19, 12:10pm

Sat Oct 19, 12:00pm

Sat Oct 19, 11:10am

Sat Oct 19, 11:01am

Sat Oct 19, 10:10am

Sat Oct 19, 10:00am

Sat Oct 19, 9:10am

Sat Oct 19, 9:00am

Sat Oct 19, 8:10am

Sat Oct 19, 8:00am

Sat Oct 19, 7:10am

Sat Oct 19, 7:00am

Sat Oct 19, 6:10am

Sat Oct 19, 6:00am

Sat Oct 19, 5:10am

Sat Oct 19, 5:00am

Sat Oct 19, 4:10am

Sat Oct 19, 4:00am

Sat Oct 19, 3:10am

Sat Oct 19, 3:00am

Sat Oct 19, 2:10am

Sat Oct 19, 2:00am

Meta data:

ID: fe4e3319-2670-4fda-9b43-b05336e4a6e2
Link: https://api.weather.gov/products/fe4e3319-2670-4fda-9b43-b05336e4a6e2